Miscellaneous Local Product
Issued by NWS North Platte, NE

Home | Current Version | Previous Version | Graphics & Text | Print | Product List | Glossary On
Versions: 1 2 3 4 5 6 7 8 9 10 11 12 13 14 15 16 17 18 19 20 21 22 23 24 25 26 27 28 29 30 31 32 33 34 35 36 37 38 39 40 41 42 43 44 45 46 47 48 49 50
000
AXUS43 KLBF 290110
MISLBF


WESTERN AND NORTH CENTRAL NEBRASKA HOURLY WEATHER ROUNDUP
NATIONAL WEATHER SERVICE NORTH PLATTE NE
800 PM CDT MON JUL 28 2014

***STATIONS NOT REPORTING VARIABLES SUCH AS SKY/WEATHER OR
PRESSURE ARE PROVIDED BY THE NEBRASKA DEPARTMENT OF
ROADS...RAWS...AND APRS NETWORKS...AND ARE NOT UNDER
NATIONAL WEATHER SERVICE QUALITY CONTROL***

...OBSERVATIONS IN AND NEAR THE EASTERN PANHANDLE OF NEBRASKA...

CITY           SKY/WX    TMP DP  RH WIND       PRES   REMARKS
PINE RIDGE     SUNNY     79  56  45 E9        30.21S
CHADRON        SUNNY     85  55  35 E14       30.17S
ALLIANCE       MOSUNNY   85  54  34 SE14      30.20F
SIDNEY         PTSUNNY   82  55  39 SE10      30.23F
WHITECLAY        N/A     80  54  40 E7          N/A
RUSHVILLE        N/A     84  49  29 E20         N/A
GORDON           N/A     84  55  37 E14         N/A
CRESCENT LAKE    N/A     81  57  43 E10         N/A
LISCO            N/A     88  51  27 E16         N/A
$$

...OBSERVATIONS IN NORTH CENTRAL NEBRASKA...

CITY           SKY/WX    TMP DP  RH WIND       PRES   REMARKS
VALENTINE      SUNNY     79  51  37 E13       30.22F
THEDFORD       MOSUNNY   79  56  45 E6        30.23S
AINSWORTH      SUNNY     75  53  46 E5        30.23S
O`NEILL        PTCLDY    74  53  47 E7        30.23S
ORD            CLEAR     74  57  55 E5        30.20F
BROKEN BOW     CLEAR     76  58  53 E7        30.22F
BROWNLEE         N/A     82  49  31 E6          N/A
SPRINGVIEW       N/A     78  54  42 CALM        N/A
DUNNING          N/A     78  58  49 E3          N/A
ROSE             N/A     80  59  49 CALM        N/A
NEWPORT          N/A     75  58  54 E6          N/A
SARGENT          N/A     76  56  49 CALM        N/A
COMSTOCK         N/A     80  61  52 E7          N/A
CHAMBERS         N/A     83  52  34 E3          N/A
EWING            N/A     70  58  66 CALM        N/A
$$

...OBSERVATIONS IN SOUTHWEST NEBRASKA AND FAR NORTHEAST COLORADO...

CITY           SKY/WX    TMP DP  RH WIND       PRES   REMARKS
WRAY             N/A     83  50  32 S12       30.21S
HOLYOKE        FAIR      81  59  47 S6        30.21S
IMPERIAL       PTSUNNY   85  55  35 SE8       30.19S
OGALLALA       SUNNY     80  60  49 E13       30.20S
NORTH PLATTE   SUNNY     77  59  53 SE13      30.20F
MCCOOK         PTCLDY    79  59  50 E14       30.18R
LEXINGTON      CLEAR     78  61  55 E9        30.20F
SUTHERLAND       N/A     81  65  57 E10         N/A
BRADY            N/A     77  59  53 CALM        N/A
$$

...SOME WEATHER OBSERVATIONS FROM AROUND THE REGION...

CITY           SKY/WX    TMP DP  RH WIND       PRES   REMARKS
DENVER         CLOUDY    76  58  53 S14       30.26F
LARAMIE        MOSUNNY   73  49  42 SE7       30.36S
CHEYENNE       PTSUNNY   71  54  54 SE7G18    30.29F
SCOTTSBLUFF    SUNNY     85  59  41 E10       30.18F
RAPID CITY     SUNNY     73  57  57 SE7       30.23F
PIERRE         SUNNY     74  53  48 NE8       30.20F
WINNER         FAIR      79  49  34 NE6       30.21F
SIOUX FALLS    PTCLDY    70  54  56 NE8       30.20F
OMAHA          PTCLDY    75  55  49 NW8       30.17S
GRAND ISLAND   CLEAR     74  57  55 E7        30.22F
KANSAS CITY    PTCLDY    73  62  68 N5        30.16S
WICHITA        PTCLDY    83  55  38 N9        30.14F
HAYS           CLEAR     84  57  39 SE12      30.17S
LIBERAL        MOCLDY    75  55  50 SW9       30.25S
GOODLAND       PTSUNNY   78  52  40 S14       30.24S
$$



USA.gov is the U.S. government's official web portal to all federal, state and local government web resources and services.